Location: Blue Sky Observatory
(43.1153°N, 70.9036°W)
Time: 06:19:07
(UTC-04:00)

Amateur Radio Satellites - All Passes

Search period start: 24 October 2014 05:49
Search period end: 25 October 2014 05:49
Location: Blue Sky Observatory, 43.1153°N, 70.9036°W

Satellite Date Start Highest point End Downlink Frequencies (MHz)
Time Altitude Azimuth
Uosat F 24 Oct 05:58:07 06:02:55 44° 291° (WNW) 06:07:41 435.120 FM
Sapphire 24 Oct 05:59:12 06:03:17 21° 317° (NW) 06:07:24 437.095 MHz 1200 baud AX-25 AFSK
JAS-2 24 Oct 06:03:55 06:11:38 63° 100° (E) 06:19:22 435.800 - 435.900 CW/SSB, 435.910 FM
Hamsat 24 Oct 06:07:08 06:11:03 37° 97° (E) 06:14:57 145.90 MHz
AO-7 24 Oct 06:17:20 06:25:14 50° 297° (WNW) 06:33:09 29.400 - 29.500 MHz
PCSat 24 Oct 06:23:22 06:26:25 15° 323° (NW) 06:29:29 145.825 MHz
STRAND 1 24 Oct 06:46:54 06:52:02 84° 256° (WSW) 06:57:13 ?
Saudisat 1A 24 Oct 07:02:34 07:05:58 22° 113° (ESE) 07:09:23 436.775 MHz
RS-15 24 Oct 07:15:05 07:26:18 82° 55° (NE) 07:37:59 29.354 - 29.394 USB, Beacon 29.352 USB
Hamsat 24 Oct 07:43:42 07:46:46 20° 294° (WNW) 07:49:49 145.90 MHz
JAS-2 24 Oct 07:49:36 07:56:08 32° 298° (WNW) 08:02:48 435.800 - 435.900 CW/SSB, 435.910 FM
SO-67 24 Oct 07:55:34 07:59:02 88° 283° (WNW) 08:02:28 435.3500 MHz FM
HO-68 24 Oct 08:01:20 08:02:59 11° 85° (E) 08:04:39 435.675 MHz FM
AO-7 24 Oct 08:13:00 08:16:05 13° 319° (NW) 08:19:10 29.400 - 29.500 MHz
Saudisat 1A 24 Oct 08:41:06 08:45:17 43° 310° (NW) 08:49:30 436.775 MHz
UKube-1 24 Oct 09:15:00 09:16:40 12° 90° (E) 09:18:19 145.840 MHz, 145.915 MHz
RS-15 24 Oct 09:28:37 09:37:30 29° 257° (WSW) 09:46:42 29.354 - 29.394 USB, Beacon 29.352 USB
MaSat-1 24 Oct 09:40:50 09:43:21 42° 247° (WSW) 09:45:40 437.345 MHz
HO-68 24 Oct 09:44:46 09:51:58 68° 104° (ESE) 09:59:06 435.675 MHz FM
FUNcube-1 24 Oct 09:53:16 09:54:51 12° 89° (E) 09:56:25 145.950 - 145.970 MHz USB
Oscar 11 24 Oct 09:55:21 09:59:12 31° 96° (E) 10:03:00 145.825 FM, Beacon 2401.500 USB
ZACube-1 24 Oct 10:42:36 10:46:41 42° 98° (E) 10:50:39 437.345 MHz
UKube-1 24 Oct 10:48:56 10:53:17 66° 286° (WNW) 10:57:36 145.840 MHz, 145.915 MHz
KITSAT 1 24 Oct 10:50:00 10:55:04 18° 101° (E) 11:00:07 435.175 FM
Sapphire 24 Oct 11:18:53 11:21:59 15° 37° (NE) 11:25:05 437.095 MHz 1200 baud AX-25 AFSK
FUNcube-1 24 Oct 11:27:27 11:31:41 61° 286° (WNW) 11:35:48 145.950 - 145.970 MHz USB
Oscar 11 24 Oct 11:31:44 11:35:15 25° 293° (WNW) 11:38:45 145.825 FM, Beacon 2401.500 USB
HO-68 24 Oct 11:33:22 11:39:05 27° 303° (WNW) 11:44:48 435.675 MHz FM
PCSat 24 Oct 11:40:57 11:45:05 22° 43° (NE) 11:49:12 145.825 MHz
Oscar 16 24 Oct 12:12:16 12:16:02 21° 62° (ENE) 12:19:48 437.025 USB, Beacon 2401.1428
AO-Echo 24 Oct 12:15:07 12:16:07 11° 56° (NE) 12:17:07 ?
ZACube-1 24 Oct 12:19:50 12:22:45 18° 296° (WNW) 12:25:38 437.345 MHz
JAS-1B 24 Oct 12:21:51 12:26:20 23° 62° (ENE) 12:30:43 435.800 - 435.900 CW/SSB
SO-50 24 Oct 12:29:40 12:33:32 29° 114° (ESE) 12:37:30 436.795 FM
Uribyol 2 24 Oct 12:32:04 12:34:48 15° 58° (ENE) 12:37:33 436.500 FM
ITAMSAT 1 24 Oct 12:37:44 12:40:39 15° 59° (ENE) 12:43:36 435.822 SSB
KITSAT 1 24 Oct 12:41:13 12:49:18 87° 120° (ESE) 12:57:26 435.175 FM
Gurwin Techsat 1B 24 Oct 12:55:34 12:57:26 12° 56° (NE) 12:59:18 435.225 FM
Sapphire 24 Oct 13:00:59 13:06:26 71° 58° (ENE) 13:11:50 437.095 MHz 1200 baud AX-25 AFSK
Oscar 19 24 Oct 13:04:13 13:09:16 58° 72° (ENE) 13:14:19 437.125 CW, 437.150 USB
TMSAT-1 24 Oct 13:07:33 13:09:04 11° 56° (NE) 13:10:35 436.925 FM
ISS 24 Oct 13:12:07 13:15:25 66° 144° (SE) 13:18:44 145.800 FM
AO-27 24 Oct 13:21:00 13:25:43 36° 67° (ENE) 13:30:28 436.795 MHz FM
PCSat 24 Oct 13:23:38 13:29:04 72° 243° (WSW) 13:34:27 145.825 MHz
Oscar 10/S400 24 Oct 13:31:55 13:48:59 34° 152° (SSE) 14:10:06 145.825 - 145.975 CW/USB, Beacon 145.810 USB
AO-7 24 Oct 13:37:26 13:41:27 15° 43° (NE) 13:45:28 29.400 - 29.500 MHz
AO-Echo 24 Oct 13:49:04 13:53:56 77° 74° (ENE) 13:59:01 ?
Oscar 16 24 Oct 13:49:57 13:54:59 54° 260° (W) 14:00:03 437.025 USB, Beacon 2401.1428
UOSAT-12 24 Oct 13:56:41 14:00:10 21° 111° (ESE) 14:03:42 437.025 FM, 437.400 FM
Uribyol 2 24 Oct 14:08:21 14:13:34 83° 256° (WSW) 14:18:51 436.500 FM
SO-50 24 Oct 14:09:47 14:13:58 36° 313° (NW) 14:18:17 436.795 FM
JAS-1B 24 Oct 14:10:58 14:16:46 50° 260° (W) 14:22:16 435.800 - 435.900 CW/SSB
ITAMSAT 1 24 Oct 14:14:16 14:19:29 79° 256° (WSW) 14:24:45 435.822 SSB
Gurwin Techsat 1B 24 Oct 14:31:13 14:36:31 79° 74° (ENE) 14:41:52 435.225 FM
KITSAT 1 24 Oct 14:38:57 14:45:43 28° 323° (NW) 14:52:31 435.175 FM
TMSAT-1 24 Oct 14:42:47 14:48:04 75° 74° (ENE) 14:53:23 436.925 FM
Oscar 19 24 Oct 14:45:30 14:48:58 18° 269° (W) 14:52:27 437.125 CW, 437.150 USB
Sapphire 24 Oct 14:45:50 14:49:14 17° 255° (WSW) 14:52:36 437.095 MHz 1200 baud AX-25 AFSK
ISS 24 Oct 14:49:25 14:52:20 27° 342° (NNW) 14:55:15 145.800 FM
AO-27 24 Oct 15:00:43 15:05:15 30° 264° (W) 15:09:49 436.795 MHz FM
AO-7 24 Oct 15:24:29 15:32:31 58° 65° (ENE) 15:40:34 29.400 - 29.500 MHz
Saudisat 1A 24 Oct 15:27:28 15:31:17 27° 45° (NE) 15:35:05 436.775 MHz
AO-Echo 24 Oct 15:31:21 15:33:21 12° 272° (W) 15:35:24 ?
Uosat F 24 Oct 15:34:01 15:38:33 36° 67° (ENE) 15:43:07 435.120 FM
UOSAT-12 24 Oct 15:35:27 15:39:58 50° 309° (NW) 15:44:35 437.025 FM, 437.400 FM
Gurwin Techsat 1B 24 Oct 16:14:35 16:17:06 13° 271° (W) 16:19:38 435.225 FM
JAS-2 24 Oct 16:18:08 16:23:13 29° 61° (ENE) 16:28:51 435.800 - 435.900 CW/SSB, 435.910 FM
TMSAT-1 24 Oct 16:25:47 16:28:33 14° 271° (W) 16:31:20 436.925 FM
ISS 24 Oct 16:27:21 16:29:48 19° 2° (N) 16:32:16 145.800 FM
KITSAT 1 24 Oct 16:40:37 16:44:26 14° 352° (N) 16:48:15 435.175 FM
Hamsat 24 Oct 17:01:30 17:05:11 30° 70° (ENE) 17:08:52 145.90 MHz
Saudisat 1A 24 Oct 17:06:50 17:10:57 39° 243° (WSW) 17:15:03 436.775 MHz
Uosat F 24 Oct 17:13:03 17:17:22 29° 264° (W) 17:21:43 435.120 FM
OPAL 24 Oct 17:13:30 17:17:26 23° 96° (E) 17:21:19 ?
AO-7 24 Oct 17:18:25 17:25:39 33° 264° (W) 17:32:57 29.400 - 29.500 MHz
UOSAT-12 24 Oct 17:19:44 17:21:15 11° 331° (NNW) 17:22:47 437.025 FM, 437.400 FM
JAS-2 24 Oct 18:02:09 18:07:52 51° 262° (W) 18:14:24 435.800 - 435.900 CW/SSB, 435.910 FM
ISS 24 Oct 18:04:05 18:07:12 34° 22° (NNE) 18:10:17 145.800 FM
SO-67 24 Oct 18:29:06 18:32:12 32° 72° (ENE) 18:35:18 435.3500 MHz FM
HO-68 24 Oct 18:32:19 18:34:46 12° 47° (NE) 18:37:13 435.675 MHz FM
Hamsat 24 Oct 18:37:45 18:41:09 23° 266° (W) 18:44:32 145.90 MHz
KITSAT 1 24 Oct 18:38:31 18:43:49 18° 23° (NNE) 18:49:06 435.175 FM
OPAL 24 Oct 18:51:48 18:56:29 43° 293° (WNW) 19:01:08 ?
STRAND 1 24 Oct 18:56:55 19:01:29 31° 96° (E) 19:06:00 ?
ISS 24 Oct 19:40:46 19:43:56 40° 220° (SW) 19:47:04 145.800 FM
SO-67 24 Oct 20:03:19 20:05:17 14° 268° (W) 20:07:15 435.3500 MHz FM
UKube-1 24 Oct 20:11:39 20:13:44 13° 61° (ENE) 20:15:49 145.840 MHz, 145.915 MHz
HO-68 24 Oct 20:14:01 20:20:57 56° 67° (ENE) 20:27:56 435.675 MHz FM
KITSAT 1 24 Oct 20:33:32 20:41:24 51° 49° (NE) 20:49:12 435.175 FM
STRAND 1 24 Oct 20:36:02 20:40:39 34° 293° (WNW) 20:45:15 ?
FUNcube-1 24 Oct 20:50:34 20:52:48 14° 62° (ENE) 20:55:02 145.950 - 145.970 MHz USB
Oscar 11 24 Oct 20:51:26 20:55:08 28° 68° (ENE) 20:58:51 145.825 FM, Beacon 2401.500 USB
SO-50 24 Oct 20:59:37 21:04:09 39° 48° (NE) 21:08:43 436.795 FM
AO-40 24 Oct 21:32:24 23:15:54 23° 222° (SW) 02:26:11 Beacon 2401.320
ZACube-1 24 Oct 21:39:35 21:43:53 41° 71° (ENE) 21:48:08 437.345 MHz
RS-15 24 Oct 21:40:02 21:50:18 47° 111° (ESE) 22:00:28 29.354 - 29.394 USB, Beacon 29.352 USB
UKube-1 24 Oct 21:45:03 21:49:22 67° 258° (WSW) 21:53:44 145.840 MHz, 145.915 MHz
HO-68 24 Oct 22:02:53 22:08:58 30° 265° (W) 22:15:06 435.675 MHz FM
FUNcube-1 24 Oct 22:24:03 22:28:38 70° 258° (WSW) 22:33:10 145.950 - 145.970 MHz USB
UOSAT-12 24 Oct 22:24:22 22:28:28 28° 44° (NE) 22:32:30 437.025 FM, 437.400 FM
Oscar 11 24 Oct 22:27:35 22:31:16 27° 265° (W) 22:34:58 145.825 FM, Beacon 2401.500 USB
KITSAT 1 24 Oct 22:29:15 22:36:38 41° 250° (WSW) 22:44:00 435.175 FM
SO-50 24 Oct 22:40:24 22:44:37 30° 246° (WSW) 22:48:51 436.795 FM
ZACube-1 24 Oct 23:16:57 23:20:24 21° 267° (W) 23:23:51 437.345 MHz
MaSat-1 24 Oct 23:17:54 23:21:37 32° 111° (ESE) 23:25:02 437.345 MHz
RS-15 24 Oct 23:51:46 00:02:28 56° 314° (NW) 00:13:13 29.354 - 29.394 USB, Beacon 29.352 USB
UOSAT-12 25 Oct 00:04:18 00:08:46 43° 243° (WSW) 00:13:08 437.025 FM, 437.400 FM
MaSat-1 25 Oct 00:54:03 00:57:16 23° 304° (NW) 01:00:15 437.345 MHz
Oscar 19 25 Oct 01:15:50 01:19:22 19° 92° (E) 01:22:53 437.125 CW, 437.150 USB
AO-27 25 Oct 01:35:24 01:36:54 11° 88° (E) 01:38:25 436.795 MHz FM
JAS-1B 25 Oct 01:51:33 01:57:52 41° 99° (E) 02:05:16 435.800 - 435.900 CW/SSB
AO-Echo 25 Oct 01:55:43 02:00:03 25° 93° (E) 02:04:22 ?
Oscar 16 25 Oct 02:00:35 02:05:34 49° 100° (E) 02:10:30 437.025 USB, Beacon 2401.1428
RS-15 25 Oct 02:09:21 02:17:59 25° 346° (NNW) 02:26:44 29.354 - 29.394 USB, Beacon 29.352 USB
Uribyol 2 25 Oct 02:20:30 02:25:11 32° 96° (E) 02:29:48 436.500 FM
ITAMSAT 1 25 Oct 02:26:30 02:31:16 35° 97° (E) 02:35:59 435.822 SSB
PCSat 25 Oct 02:26:51 02:28:50 12° 102° (ESE) 02:30:48 145.825 MHz
Gurwin Techsat 1B 25 Oct 02:46:55 02:51:32 29° 95° (E) 02:56:06 435.225 FM
Oscar 19 25 Oct 02:54:03 02:59:03 55° 289° (WNW) 03:04:02 437.125 CW, 437.150 USB
TMSAT-1 25 Oct 02:58:09 03:02:40 28° 95° (E) 03:07:08 436.925 FM
AO-27 25 Oct 03:11:51 03:17:08 90° 292° (WNW) 03:22:21 436.795 MHz FM
AO-7 25 Oct 03:26:55 03:31:34 16° 88° (E) 03:36:11 29.400 - 29.500 MHz
AO-Echo 25 Oct 03:33:56 03:38:58 45° 290° (WNW) 03:44:00 ?
Oscar 16 25 Oct 03:40:41 03:44:34 22° 297° (WNW) 03:48:26 437.025 USB, Beacon 2401.1428
JAS-1B 25 Oct 03:42:26 03:48:27 40° 293° (WNW) 03:55:29 435.800 - 435.900 CW/SSB
Sapphire 25 Oct 03:43:39 03:48:53 54° 115° (ESE) 03:54:10 437.095 MHz 1200 baud AX-25 AFSK
Uribyol 2 25 Oct 03:59:59 04:04:37 33° 293° (WNW) 04:09:13 436.500 FM
PCSat 25 Oct 04:05:58 04:11:23 87° 120° (ESE) 04:16:51 145.825 MHz
ITAMSAT 1 25 Oct 04:06:06 04:10:40 31° 294° (WNW) 04:15:13 435.822 SSB
RS-15 25 Oct 04:26:06 04:35:14 28° 21° (NNE) 04:44:35 29.354 - 29.394 USB, Beacon 29.352 USB
Gurwin Techsat 1B 25 Oct 04:26:40 04:31:32 38° 292° (WNW) 04:36:24 435.225 FM
OPAL 25 Oct 04:28:53 04:33:49 49° 68° (ENE) 04:38:43 ?
TMSAT-1 25 Oct 04:37:45 04:42:41 40° 292° (WNW) 04:47:34 436.925 FM
AO-27 25 Oct 04:53:27 04:55:52 13° 303° (WNW) 04:58:17 436.795 MHz FM
JAS-2 25 Oct 05:09:47 05:16:18 28° 91° (E) 05:22:47 435.800 - 435.900 CW/SSB, 435.910 FM
AO-7 25 Oct 05:17:12 05:25:34 80° 107° (ESE) 05:33:55 29.400 - 29.500 MHz
Uosat F 25 Oct 05:18:47 05:23:52 81° 104° (ESE) 05:28:55 435.120 FM
Sapphire 25 Oct 05:28:04 05:32:37 27° 314° (NW) 05:37:12 437.095 MHz 1200 baud AX-25 AFSK
